STARLINK-4504 (53555 NORAD) Tracking and Keplerian Element Data

This shows tracking and keplerian element data for the satellite.

Feedback or suggestion? Click here.




ElementValue
Catalog53555
NameSTARLINK-4504
Epoch Orbit1444
Epoch Day325.02811636
Epoch Year2022
RAAN72.043
Inclination53.2196
Eccentricity0.0001643
Argument of Perigee61.9972
Mean Anonmoly298.1186
Mean Motion15.08835583
Decay Rate-1.257E-05
L11 53555U 22101AE 22325.02811636 -.00001257 00000+0 -60894-4 0 9997
L22 53555 53.2196 72.0430 0001643 61.9972 298.1186 15.08835583 14449



Live tracking and technical data element details for STARLINK-4504 (NORAD 53555). STARLINK-4504 can be tracked NOW for your location showing map with azimuth and elevation plus other details from your city location.







IsCatalogInMostPopularTable: catalog: 53555, numindb: 4
Update: records affected: 1



GetName: 53555 STARLINK-4504

Hit Count: updated at: Thu, 08 Dec 2022 10:38:58 GMT